Preview of NWS' New Version of Forecast
This preview is not operational and should not be used for support decisions.

Regional Weather Roundup (RWR)

Issued by National Weather Service (NWS)

                            
000
ASUS46 KPQR 242210
RWROR 

OREGON REGIONAL WEATHER ROUNDUP
NATIONAL WEATHER SERVICE PORTLAND OR
300 PM PDT SAT AUG 24 2019

NOTE: "FAIR" INDICATES FEW OR NO CLOUDS BELOW 12,000 FEET WITH
NO SIGNIFICANT WEATHER AND/OR OBSTRUCTIONS TO VISIBILITY.

ORZ001>013-242300-
NORTHWEST OREGON

  
CITY           SKY/WX    TMP DP  RH WIND       PRES   REMARKS
ASTORIA        CLOUDY    66  58  75 NW7       30.04S                  
TILLAMOOK      PTSUNNY   72  57  60 NW8       30.05F                  
NEWPORT        MOSUNNY   66  57  72 NW9       30.07S                  
FLORENCE       FAIR      68  55  64 NW15      30.02F                  
PORTLAND       MOSUNNY   80  53  39 NW8       29.98F                  
VANCOUVER WA   MOSUNNY   78  52  40 VRB6      29.98F                  
SCAPPOOSE      CLOUDY    78  55  44 NW6       29.98F                  
HILLSBORO      MOSUNNY   77  53  43 CALM      29.98F                  
AURORA         SUNNY     79  50  36 CALM      29.99F                  
MCMINNVILLE    MOSUNNY   81  50  33 MISG      29.97F                  
SALEM          SUNNY     80  50  34 VRB6      29.98F                  
CORVALLIS      SUNNY     82  52  35 N3        29.98F                  
EUGENE         PTSUNNY   83  49  30 NE7       29.98F                  
CRESWELL       SUNNY     82  43  24 CALM      29.97S                  
$$

ORZ021-028-242300-
SOUTHWEST OREGON

  
CITY           SKY/WX    TMP DP  RH WIND       PRES   REMARKS
NORTH BEND     SUNNY     70  59  68 N18       30.04S                  
BROOKINGS      SUNNY     65  54  67 S6        29.98F                  
ROSEBURG       SUNNY     86  43  22 N6        29.95F                  
SEXTON SUMMIT  SUNNY     80  37  21 CALM      30.08F                  
GRANTS PASS    FAIR      91  19   7 CALM      29.94F                  
MEDFORD        SUNNY     91  39  16 W3        29.91F                  
$$

ORZ014>016-041-242300-
COLUMBIA GORGE

  
CITY           SKY/WX    TMP DP  RH WIND       PRES   REMARKS
TROUTDALE      MOSUNNY   79  50  36 VRB6      29.98F                  
HOOD RIVER     MOSUNNY   79  48  34 W9G17     29.94F                  
THE DALLES     SUNNY     84  51  31 W18G26    29.89F                  
$$

ORZ029>031-041-044-049-050-061>064-502-503-505>511-242300-
EASTERN OREGON

  
CITY           SKY/WX    TMP DP  RH WIND       PRES   REMARKS
MADRAS         SUNNY     86  41  20 NW6G18    29.96S                  
REDMOND        SUNNY     87  37  17 N15G22    29.96S                  
BEND           SUNNY     88  34  14 VRB7G14   29.97S                  
PRINEVILLE     SUNNY     82  36  18 W6G13     29.97S                  
KLAMATH FALLS  SUNNY     88  37  16 W15       30.03F                  
LAKEVIEW       SUNNY     89  41  18 W16       30.06F                  
HERMISTON      SUNNY     89  46  22 SW20G26   29.83F                  
PENDLETON      MOSUNNY   86  42  21 W17G28    29.87F                  
JOHN DAY       SUNNY     88  34  14 NW7       29.96S                  
MEACHAM        MOSUNNY   76  33  21 VRB3      29.99F                  
LA GRANDE      SUNNY     87  37  17 NW15G26   29.90S                  
BAKER CITY     SUNNY     90  42  18 NW9       29.92F                  
BURNS          SUNNY     91  33  12 W16G24    29.98F                  
ROME             N/A     96  36  12 W13G30    29.94F HX  91           
ONTARIO        SUNNY     94  48  20 E7        29.84F HX  90           
$$